EHI
0 0 0 0 0 0 0 0 0 0 0 0 0 0 0 0 0 0 0 0 0 0 0 0 0 0 0 0 0 1 1 1 0 0 0 0 0 0 0 0 0 0 0 0
0 0 0 0 0 0 0 0 0 0 0 0 0 0 0 0 0 0 0 0 0 0 0 0 0 0 0 0 0 0 0 0 0 0 0 0 0 0 0 0 0 0 0 0
0 0 0 0 0 0 0 0 0 0 0 0 0 0 0 0 0 0 0 0 0 0 0 0 0 0 0 0 0 0 0 0 0 0 0 0 0 0 0 0 0 0 0 0
0 0 0 0 0 0 0 0 0 0 0 0 0 0 0 0 0 0 0 0 0 0 0 0 0 0 0 0 0 0 0 0 0 0 0 0 0 0 0 0 0 0 0 0
0 0 0 0 0 0 0 0 0 0 0 0 0 0 0 0 0 0 0 0 0 0 0 0 0 0 0 0 0 0 0 0 0 0 0 0 0 0 0 0 0 0 0 0
0 0 0 0 0 0 0 0 0 0 0 0 0 0 0 0 0 0 0 0 0 0 0 0 0 0 0 0 0 0 0 0 0 0 0 0 0 0 0 0 0 0 0 0
0 0 0 0 0 0 0 0 0 0 0 0 0 0 0 0 0 0 0 0 0 0 0 0 0 0 0 0 0 0 0 0 0 0 0 0 0 0 0 0 0 0 0 0
0 0 0 0 0 0 0 0 0 0 0 0 0 0 0 0 0 0 0 0 0 0 0 0 0 0 0 0 0 0 0 0 0 0 0 0 0 0 0 0 0 0 0 0
0 0 0 0 0 0 0 0 0 0 0 0 0 0 0 0 0 0 0 0 0 0 0 0 0 0 0 0 0 0 0 0 0 0 0 0 0 0 0 0 0 0 0 0
0 0 0 0 0 0 0 0 0 0 0 0 0 0 0 0 0 0 0 0 0 0 0 0 0 0 0 0 0 0 0 0 0 0 0 0 0 0 0 0 0 0 0 0
0 0 0 0 0 0 0 0 0 0 0 0 0 0 0 0 0 0 0 0 0 0 0 0 0 0 0 0 0 0 0 0 0 0 0 0 0 0 0 0 0 0 0 0
0 0 0 0 0 0 0 0 0 0 0 0 0 0 0 0 0 0 0 0 0 0 0 0 0 0 0 0 0 0 0 0 0 0 0 0 0 0 0 0 0 0 0 0
0 0 0 0 0 0 0 0 0 0 0 0 0 0 0 0 0 0 0 0 0 0 0 0 0 0 0 0 0 0 0 0 0 0 0 0 0 0 0 0 0 0 0 0
0 0 0 0 0 0 0 0 0 0 0 0 0 0 0 0 0 0 0 0 0 0 0 0 0 0 0 0 0 0 0 0 0 0 0 0 0 0 0 0 0 0 0 0
0 0 0 0 0 0 0 0 0 0 0 0 0 0 0 0 0 0 0 0 0 0 0 0 0 0 0 0 0 0 0 0 0 0 0 0 0 0 0 0 0 0 0 0
0 0 0 0 0 0 0 0 0 0 0 0 0 0 0 0 0 0 0 0 0 0 0 0 0 0 0 0 0 0 0 0 0 0 0 0 0 0 0 0 0 0 0 0
0 0 0 0 0 0 0 0 0 0 0 0 0 0 0 0 0 0 0 0 0 0 0 0 0 0 0 0 0 0 0 0 0 0 0 0 0 0 0 0 0 0 0 0
0 0 0 0 0 0 0 0 0 0 0 0 0 0 0 0 0 0 0 0 0 0 0 0 0 0 0 0 0 0 0 0 0 0 0 0 0 0 0 0 0 0 0 0
0 0 0 0 0 0 0 0 0 0 0 0 0 0 0 0 0 0 0 0 0 0 0 0 0 0 0 0 0 0 0 0 0 0 0 0 0 0 0 0 0 0 0 0
0 0 0 0 0 0 0 0 0 0 0 0 0 0 0 0 0 0 0 0 0 0 0 0 0 0 0 0 0 0 0 0 0 0 0 0 0 0 0 0 0 0 0 0
0 0 0 0 0 0 0 0 0 0 0 0 0 0 0 0 0 0 0 0 0 0 0 0 0 0 0 0 0 0 0 0 0 0 0 0 0 0 0 0 0 0 0 0
0 0 0 0 0 0 0 0 0 0 0 0 0 0 0 0 0 0 0 0 0 0 0 0 0 0 0 0 0 0 0 0 0 0 0 0 0 0 0 0 0 0 0 0
0 0 0 0 0 0 0 0 0 0 0 0 0 0 0 0 0 0 0 0 0 0 0 0 0 0 0 0 0 0 0 0 0 0 0 0 0 0 0 0 0 0 0 0
0 0 0 0 0 0 0 0 0 0 0 0 0 0 0 0 0 0 0 0 0 0 0 0 0 0 0 0 0 0 0 0 0 0 0 0 0 0 0 0 0 0 0 0
0 0 0 0 0 0 0 0 0 0 0 0 0 0 0 0 0 0 0 0 0 0 0 0 0 0 0 0 0 0 0 0 0 0 0 0 0 0 0 0 0 0 0 0
0 0 0 0 0 0 0 0 0 0 0 0 0 0 0 0 0 0 0 0 0 0 0 0 0 0 0 0 0 0 0 0 0 0 0 0 0 0 0 0 0 0 0 0
Wind_Speed
2 2 4 6 5 3 4 5 4 4 3 5 7 7 6 4 3 6 6 5 5 6 3 1 1 2 3 3 4 5 5 5 4 3 3 3 3 3 3 3 4 5 5 6
3 2 3 2 3 1 3 4 3 1 2 4 4 7 6 6 7 8 8 8 7 5 3 2 1 2 3 4 4 4 4 4 5 4 3 2 2 2 3 3 3 3 4 4
3 2 2 3 4 3 3 5 5 3 2 2 1 5 7 7 7 7 8 7 7 8 7 4 2 2 3 3 3 4 4 3 3 3 2 2 2 1 1 1 1 2 3 3
1 1 3 3 4 4 3 4 4 4 4 2 3 4 7 6 7 10 11 9 9 7 6 5 4 3 3 3 3 3 3 3 2 3 3 4 4 3 2 1 1 1 1 2
1 1 4 5 4 5 2 3 4 3 3 1 1 3 8 3 8 13 12 11 9 8 8 7 6 5 4 3 3 3 4 3 3 3 3 4 3 2 1 1 1 1 0 0
1 1 2 3 2 4 3 5 5 4 2 4 6 5 9 6 10 8 8 9 9 9 8 7 5 5 3 3 3 3 4 3 3 3 3 3 3 2 2 1 1 0 0 0
1 1 2 2 4 3 3 5 3 2 3 6 5 6 11 8 8 8 8 8 8 8 9 8 8 7 5 5 4 4 5 4 3 3 3 2 2 2 2 1 1 0 0 1
3 2 4 4 4 5 4 5 5 5 5 3 3 8 10 7 5 6 7 5 5 7 8 9 8 7 6 6 5 5 5 4 3 3 3 3 2 2 1 1 1 1 0 0
4 2 1 3 3 7 6 4 3 3 1 1 5 7 10 4 4 4 3 3 6 7 7 7 7 6 6 6 5 5 5 5 4 4 4 4 3 3 3 2 2 1 1 1
3 3 1 2 3 2 3 6 5 3 3 4 4 5 6 5 5 4 3 4 5 6 6 6 6 6 5 5 4 5 5 5 4 4 3 4 4 4 3 3 3 3 3 3
2 3 3 3 5 7 5 4 4 4 3 3 3 7 6 5 5 6 6 5 6 7 7 6 5 5 5 5 5 5 5 5 4 4 4 5 4 4 4 4 4 3 3 4
3 3 2 2 1 3 5 6 7 5 4 4 3 8 4 4 6 5 5 5 5 5 5 5 6 5 5 5 5 5 4 4 4 4 4 4 4 4 5 4 4 4 4 5
5 4 3 1 1 3 4 5 5 4 3 4 4 8 3 3 2 2 4 5 5 5 5 5 5 5 5 5 5 5 4 4 4 4 5 4 4 4 4 4 4 4 5 5
5 3 5 6 5 6 6 6 8 6 5 5 8 8 7 5 3 2 4 5 6 6 6 6 6 5 5 5 5 5 4 4 5 5 5 5 4 4 4 4 4 5 5 5
3 3 3 4 3 4 6 8 10 11 9 8 7 8 9 7 5 5 4 5 5 6 7 8 8 6 6 6 5 5 5 5 5 5 5 4 4 4 4 4 4 5 5 5
2 2 1 2 2 4 4 7 10 12 10 11 9 11 8 5 3 4 5 7 8 8 9 8 8 8 8 8 7 6 6 5 5 5 5 5 4 4 4 4 4 5 5 5
2 2 2 2 2 0 6 10 12 8 8 9 14 13 5 5 6 8 8 9 10 10 9 9 10 10 9 9 8 8 7 6 6 6 6 5 5 5 4 5 5 5 5 5
4 3 2 1 1 6 7 3 7 8 9 10 9 7 7 9 8 6 7 9 10 9 8 8 8 8 7 7 7 7 7 7 6 6 6 6 5 5 5 5 5 5 4 4
6 4 2 2 2 7 7 3 5 6 7 7 11 11 7 4 1 4 5 7 9 8 7 6 6 6 7 8 9 9 7 7 7 6 6 6 6 6 6 5 5 4 4 4
3 3 3 3 2 5 5 2 2 3 5 3 5 7 5 4 3 6 4 5 5 4 4 5 5 6 8 8 9 9 8 8 7 7 6 6 6 6 6 6 5 4 4 4
3 3 4 4 4 7 6 3 3 2 5 3 2 3 4 7 6 2 2 3 3 3 4 5 6 6 7 9 9 9 8 8 7 6 6 6 6 6 6 5 4 5 5 5
5 4 5 4 5 8 2 3 4 6 3 2 2 1 2 3 1 2 3 3 4 4 4 5 6 5 6 8 9 8 8 6 6 7 7 6 6 6 6 6 5 5 5 5
5 6 5 7 7 4 2 4 3 2 2 1 1 1 2 3 2 2 2 2 3 3 4 4 5 5 5 6 7 8 6 7 7 7 7 6 6 5 6 6 6 5 4 4
4 1 2 4 5 4 4 3 3 2 2 1 0 1 2 2 2 2 2 2 2 2 3 4 5 6 6 6 6 6 7 8 8 8 7 7 6 6 5 5 5 5 5 4
4 2 2 4 5 5 4 3 2 1 1 1 1 1 2 2 2 2 2 1 1 2 2 4 5 6 6 6 6 6 8 9 8 8 7 7 6 6 5 5 4 5 5 6
4 5 4 5 4 3 4 3 1 1 1 1 1 2 2 2 2 2 1 1 1 1 2 3 4 5 5 6 7 7 8 9 9 8 7 6 5 5 5 4 3 6 7 10
Wind_Direction
103 134 202 198 195 187 144 143 162 195 192 173 207 231 244 244 236 239 242 235 235 246 264 268 201 177 162 163 173 179 174 172 162 159 168 175 192 192 192 200 201 201 201 201
83 226 220 174 177 165 172 159 162 180 172 172 212 244 244 228 226 229 231 232 230 230 246 249 197 146 164 170 170 169 173 168 173 176 166 163 160 176 185 190 196 199 200 201
167 224 181 166 163 179 203 178 170 155 109 101 140 273 247 243 226 232 232 226 221 214 216 213 194 170 151 156 167 167 168 163 167 166 143 120 112 105 145 187 198 212 205 204
210 239 174 171 183 176 209 190 166 144 132 200 172 252 264 234 239 235 232 225 222 214 204 196 186 174 164 169 148 140 140 137 140 146 157 166 176 191 195 187 194 211 203 207
217 187 170 184 193 171 183 138 138 133 124 109 198 230 275 241 238 239 232 223 217 207 197 192 185 174 160 151 139 133 118 104 102 121 151 161 176 188 161 135 175 224 247 229
231 212 177 178 150 164 138 81 70 64 93 231 205 197 268 230 221 237 231 219 209 198 190 183 170 154 142 128 123 122 115 102 94 104 114 143 164 167 159 169 206 263 301 329
188 187 189 160 131 129 136 117 112 151 197 239 186 202 249 243 229 227 233 226 209 191 182 175 169 164 154 142 131 122 120 107 92 98 98 111 135 144 160 180 200 204 344 339
166 200 189 174 169 156 168 148 162 180 198 242 195 229 253 253 262 255 249 234 202 190 183 177 172 164 155 147 137 128 122 113 98 97 91 76 85 106 107 100 109 107 58 316
169 201 149 166 147 142 150 175 142 105 102 216 240 272 294 266 274 269 244 202 193 182 173 166 158 153 149 142 138 134 124 111 99 99 96 79 75 84 86 76 72 66 36 28
157 154 152 142 118 117 153 143 120 144 180 232 256 254 251 272 268 267 237 207 191 167 157 152 151 150 145 135 123 116 116 114 103 94 93 91 78 78 81 78 69 62 47 45
155 141 136 152 187 174 153 158 156 165 184 189 240 264 230 240 256 248 237 211 183 171 164 157 150 144 135 126 123 119 116 111 104 97 91 88 79 75 76 72 61 59 54 52
166 135 158 206 230 187 177 174 160 175 210 202 211 267 280 267 266 234 214 193 180 170 160 152 146 142 140 139 136 131 127 121 116 110 101 95 88 83 79 72 64 66 66 58
158 142 127 117 209 186 202 191 181 157 148 184 197 262 306 342 326 203 187 182 173 164 157 153 155 160 160 156 151 144 138 131 122 115 109 100 92 88 85 79 72 71 73 69
152 156 180 194 206 179 192 194 184 174 200 219 227 256 295 311 306 255 202 187 178 176 172 170 175 177 172 165 161 153 146 138 131 123 117 110 103 100 97 88 79 76 78 79
143 194 227 243 225 180 200 199 193 204 210 216 235 237 257 262 253 237 211 188 179 186 189 190 189 184 176 171 167 160 152 146 138 131 126 122 115 106 100 93 88 85 84 85
140 198 208 287 233 201 225 219 209 217 223 235 252 260 249 247 232 221 206 193 197 203 203 199 194 187 186 183 176 167 162 155 145 141 137 132 125 116 110 105 101 95 89 85
185 158 157 272 301 106 254 222 206 206 208 203 232 246 236 233 228 222 211 202 209 211 207 200 198 196 193 186 176 173 165 152 149 147 145 143 139 134 129 125 114 105 98 93
177 160 166 203 108 237 244 224 198 212 233 220 234 245 227 230 234 226 206 202 213 213 208 205 199 192 181 169 163 155 151 154 155 156 155 154 153 147 138 132 124 113 106 100
180 166 168 173 234 280 293 261 184 196 261 230 234 248 245 232 254 269 223 206 211 209 201 197 187 174 161 163 159 151 155 157 161 167 168 166 163 157 153 148 137 126 119 108
153 158 170 175 211 251 261 286 176 138 281 272 227 243 236 165 204 253 221 190 192 177 164 157 147 144 156 160 154 156 163 169 178 177 171 166 166 164 162 153 140 127 125 120
156 182 201 201 231 263 261 260 131 183 257 295 256 243 202 192 211 228 130 125 135 133 133 136 142 153 162 156 156 164 171 185 180 162 159 162 164 163 156 145 138 136 130 120
183 187 199 189 219 253 255 139 183 227 263 302 309 291 188 182 131 101 104 113 119 120 128 137 143 148 152 158 162 171 184 176 155 155 160 163 162 160 154 148 143 142 139 137
208 198 193 199 221 247 216 213 243 230 249 284 306 358 130 134 132 121 116 120 124 134 142 144 149 150 159 170 172 179 178 156 155 160 165 164 162 160 158 159 157 152 155 157
287 286 215 256 267 269 264 254 263 233 227 254 134 113 125 127 131 124 119 123 134 147 159 156 157 167 178 183 184 179 161 160 163 168 170 169 169 167 166 168 167 168 174 178
267 290 265 267 282 303 294 258 243 225 164 118 83 88 115 125 131 146 145 159 176 178 174 174 183 190 191 183 185 174 165 165 169 174 176 177 178 174 174 178 183 183 194 191
213 205 213 246 263 256 278 301 264 193 200 175 137 96 68 101 123 121 134 154 175 190 183 191 200 201 193 184 187 180 175 174 175 181 183 183 180 178 176 176 191 219 212 222